Location: Chervonnoye
(48.6000°N, 34.4000°E)
Time: 04:08:22
(UTC+00:00)

STRAND 1 - Visible Passes

Search period start: 06 December 2021 00:00
Search period end: 16 December 2021 00:00
Orbit: 767 x 781 km, 98.4° (Epoch: 05 December)

Date Brightness Start Highest point End Pass type
(mag) Time Alt. Az. Time Alt. Az. Time Alt. Az.
06 Dec ? 03:03:58 10° SE 03:08:39 38° ENE 03:13:20 10° N visible
07 Dec ? 02:31:04 10° ESE 02:34:51 21° ENE 02:38:38 10° N visible
07 Dec ? 04:08:30 10° S 04:13:35 65° WSW 04:18:41 10° NNW visible
08 Dec ? 01:59:17 10° ENE 02:01:13 12° NE 02:03:10 10° NNE visible
08 Dec ? 03:34:24 10° SSE 03:39:29 67° ENE 03:44:34 10° N visible
09 Dec ? 03:00:55 10° SE 03:05:32 36° ENE 03:10:10 10° N visible
09 Dec ? 04:40:01 10° SSW 04:44:42 36° W 04:49:25 10° NNW visible
10 Dec ? 02:28:05 10° ESE 02:31:46 20° ENE 02:35:26 10° NNE visible
10 Dec ? 04:05:21 10° S 04:10:27 69° WSW 04:15:34 10° NNW visible
11 Dec ? 01:56:31 10° ENE 01:58:09 11° NE 01:59:47 10° NNE visible
11 Dec ? 03:31:19 10° SSE 03:36:21 63° ENE 03:41:25 10° N visible
12 Dec ? 02:57:52 10° SE 03:02:25 34° ENE 03:06:59 10° N visible
12 Dec ? 04:36:49 10° SSW 04:41:33 38° W 04:46:18 10° NNW visible
13 Dec ? 02:25:07 10° ESE 02:28:40 19° ENE 02:32:13 10° NNE visible
13 Dec ? 04:02:12 10° S 04:07:18 73° WSW 04:12:26 10° NNW visible
14 Dec ? 01:53:48 10° ENE 01:55:04 11° NE 01:56:20 10° NE visible
14 Dec ? 03:28:13 10° SSE 03:33:14 59° ENE 03:38:16 10° N visible
15 Dec ? 02:54:50 10° SE 02:59:19 32° ENE 03:03:48 10° N visible
15 Dec ? 04:33:37 10° SSW 04:38:24 40° W 04:43:13 10° NNW visible
